[[{"header":{"parameterUnit":"m.s-1","parameterCategory":1,"la1":30.2991,"la2":30.254,"lo1":-89.0895,"lo2":-89.0444,"dy":0.0017,"dx":0.0017,"nx":28,"ny":28,"refTime":"2024-07-12T09:00:00:Z","depth":0,"parameterNumber":2,"parameterNumberName":"U-component_of_WINDS"},"data":[0,0,0,0,0,0,0,0,0,0,0,0,0,0,0,0,0,0,0,0,0,0,0,0,0,0,0,0,0,0,0,0,0,0,0,0,0,0,0,0,0,0,0,0,0,0,0,0,0,0,0,0,0,0,0,0,0,0,2.0022,2.0023,0,2.0156,2.0158,2.0159,2.0191,2.019,2.0189,2.0188,2.0326,2.033,2.0335,0,0,0,0,0,0,0,0,0,0,0,0,0,1.979,1.9794,2.0021,2.0023,2.0025,2.0156,2.0158,2.016,2.0191,2.019,2.0189,2.0188,2.0325,2.033,2.0335,0,0,0,0,0,0,0,0,0,0,0,0,0,1.9904,1.9795,2.0021,2.0056,2.0061,2.0156,2.0158,2.016,2.0191,2.019,2.0189,2.0187,2.0323,2.0329,2.0336,2.0405,0,0,2.0357,2.036,0,0,0,0,0,0,0,0,1.9898,1.9913,2.0049,2.0054,2.0059,2.0155,2.0127,2.0242,2.0192,2.0142,2.0188,2.0187,2.027,2.0281,2.031,2.0412,2.0418,2.0357,2.0362,2.0364,2.0366,0,0,0,0,0,0,0,1.989,1.9907,2.0075,2.0051,2.0057,2.0065,2.008,2.0149,2.0212,2.0146,2.0149,2.0164,2.0273,2.0303,2.0313,2.042,2.0357,2.0363,2.0367,2.037,2.0583,2.0585,0,0,0,0,0,0,1.9876,1.99,2.007,2.0079,1.9973,2.007,2.0087,2.0126,2.0211,2.0223,2.0165,2.0165,2.0292,2.0305,2.0318,2.0403,2.0364,2.0371,2.0375,2.0582,2.0584,2.0586,0,0,0,0,0,0,1.9871,1.9891,2.0065,1.999,2.0013,2.0076,2.0119,2.0129,2.016,2.0226,2.0237,2.0185,2.0292,2.0309,2.0383,2.0408,2.0374,2.038,2.058,2.0582,2.0585,2.0575,0,0,0,0,0,0,1.9864,1.9889,1.9916,1.9991,2.0017,2.0128,2.0121,2.0133,2.0171,2.0172,2.0247,2.0258,2.0292,2.0373,2.039,2.0417,2.0385,2.0578,2.0581,2.0584,2.0573,2.0576,2.0579,0,0,0,0,0,1.9855,1.9908,1.9917,1.9937,2.0052,2.0129,2.0144,2.0182,2.0173,2.0201,2.0243,2.0256,2.0403,2.038,2.04,2.0429,2.0577,2.058,2.0584,2.0571,2.0576,2.0579,0,0,0,0,0,0,1.9835,1.9919,1.9929,2.0008,2.0061,2.0134,2.017,2.0186,2.0242,2.0241,2.0286,2.0302,2.0373,2.0409,2.0382,2.05,2.049,2.0497,2.0474,2.0478,2.0481,2.047,2.0391,0,0,0,0,0,1.9839,1.9895,1.9965,2.0028,2.0054,2.0107,2.0143,2.0167,2.0224,2.0246,2.0295,2.0349,2.0408,2.0445,2.0503,2.0579,2.0594,2.0609,2.0612,2.0614,2.062,2.0661,2.0667,2.0597,2.0597,2.0597,0,0,1.9849,1.9902,1.9935,2.0025,2.0069,2.0125,2.0126,2.0186,2.0228,2.0256,2.0328,2.0365,2.0429,2.0504,2.0539,2.0536,2.0643,2.0619,2.062,2.0625,2.0665,2.0671,2.0677,2.06,2.0599,2.0599,0,0,1.9896,1.9942,1.9998,2.0042,2.0109,2.0144,2.0157,2.0228,2.0254,2.0328,2.0349,2.0399,2.05,2.0544,2.0579,2.0641,2.0654,2.0659,2.0675,2.0714,2.072,2.0725,2.0745,2.0752,2.0664,2.0664,2.0664,0,1.99,1.9985,2.0025,2.0083,2.0121,2.0149,2.0206,2.0247,2.0329,2.0354,2.0349,2.0475,2.052,2.0604,2.0619,2.0648,2.0663,2.065,2.0716,2.0721,2.0726,2.0746,2.0754,2.0664,2.0664,2.0664,2.0664,0,1.9986,2.0045,2.0082,2.016,2.0202,2.026,2.0307,2.0346,2.0366,2.0401,2.0475,2.053,2.0599,2.0621,2.0642,2.0708,2.0704,2.0707,2.0697,2.0732,2.0751,2.076,2.0664,2.0664,2.0664,2.0664,0,0,2.0022,2.0121,2.0134,2.0169,2.0244,2.029,2.0348,2.0414,2.0446,2.0501,2.055,2.0634,2.0636,2.0677,2.0703,2.0738,2.0781,2.0737,2.0739,2.0741,2.0855,2.0851,2.0859,2.079,2.0792,2.0793,2.0849,0,2.0076,2.0181,2.0217,2.0303,2.0357,2.0384,2.0434,2.0485,2.0519,2.057,2.0608,2.0666,2.0667,2.0691,2.0726,2.0768,2.0804,2.0765,2.0835,2.0837,2.0816,2.0869,2.0866,2.0915,2.0857,2.0858,2.0859,0,2.0153,2.0209,2.03,2.0367,2.0391,2.0435,2.0498,2.0547,2.0605,2.0627,2.0672,2.0695,2.0756,2.0743,2.0827,2.0799,2.083,2.0855,2.0858,2.0864,2.0849,2.0875,2.0932,2.0939,2.0872,2.0871,2.087,0,2.0168,2.0267,2.0333,2.0362,2.0443,2.0473,2.0508,2.0565,2.0602,2.0657,2.0681,2.0743,2.0777,2.0824,2.0863,2.0851,2.0942,2.0933,2.0961,2.096,2.0978,2.0976,2.1039,2.1001,2.1001,2.1001,2.1001,0,2.0224,2.0278,2.034,2.0381,2.0442,2.0484,2.0543,2.0579,2.0629,2.0677,2.0705,2.0749,2.0799,2.0849,2.088,2.0943,2.0959,2.0978,2.0985,2.0974,2.0972,2.0994,2.0991,2.1003,2.1002,2.1002,2.1002,0,2.025,2.0295,2.0369,2.0438,2.0457,2.0499,2.0558,2.0598,2.0634,2.0694,2.071,2.0766,2.0826,2.087,2.0949,2.097,2.1037,2.1045,2.1017,2.102,2.1045,2.1041,2.1123,2.1135,2.109,2.1091,2.1091,0,2.0282,2.0324,2.0398,2.0432,2.0466,2.0521,2.0558,2.0601,2.0639,2.0708,2.0739,2.0802,2.0854,2.0949,2.0996,2.1056,2.1065,2.1089,2.1074,2.1061,2.1063,2.1059,2.1063,2.1091,2.1091,2.1091,2.1092,0,2.0333,2.0352,2.0406,2.0467,2.0511,2.0561,2.0611,2.0637,2.0689,2.073,2.0792,2.0832,2.0912,2.0973,2.1037,2.1073,2.109,2.1096,2.1105,2.1094,2.1075,2.1084,2.1021,2.1094,2.1093,2.1093,2.1093,2.1093,2.0362,2.0399,2.0457,2.0515,2.0557,2.0604,2.0644,2.0684,2.0737,2.0805,2.0827,2.089,2.0946,2.1034,2.1071,2.1121,2.112,2.1134,2.1137,2.1139,2.1138,2.1068,2.1133,2.1133,2.1133,2.1133,2.1133,0,2.0412,2.045,2.0503,2.0573,2.0618,2.0631,2.0687,2.0724,2.078,2.0831,2.0881,2.0951,2.101,2.1062,2.1123,2.1153,2.1162,2.1168,2.1165,2.1172,2.1136,2.1121,2.1159,2.1159,2.1159,2.1159,2.1159,2.1159,2.0444,2.0507,2.0534,2.0618,2.0656,2.0719,2.0749,2.0792,2.0832,2.0909,2.0958,2.0992,2.1043,2.1108,2.1162,2.1176,2.1196,2.1199,2.1214,2.1179,2.1175,2.1172,2.1158,2.1203,2.1203,2.1246,2.1247,2.1247]},{"header":{"parameterUnit":"m.s-1","parameterCategory":1,"la1":30.2991,"la2":30.254,"lo1":-89.0895,"lo2":-89.0444,"dy":0.0017,"dx":0.0017,"nx":28,"ny":28,"refTime":"2024-07-12T09:00:00:Z","depth":0,"parameterNumber":3,"parameterNumberName":"V-component_of_WINDS"},"data":[0,0,0,0,0,0,0,0,0,0,0,0,0,0,0,0,0,0,0,0,0,0,0,0,0,0,0,0,0,0,0,0,0,0,0,0,0,0,0,0,0,0,0,0,0,0,0,0,0,0,0,0,0,0,0,0,0,0,2.0678,2.0678,0,2.0681,2.0681,2.0681,2.0658,2.0657,2.0656,2.0656,2.0658,2.0659,2.066,0,0,0,0,0,0,0,0,0,0,0,0,0,2.0651,2.0652,2.0678,2.0678,2.0679,2.0681,2.0681,2.0681,2.0658,2.0657,2.0656,2.0655,2.0658,2.0659,2.066,0,0,0,0,0,0,0,0,0,0,0,0,0,2.0659,2.0652,2.0678,2.0667,2.0666,2.0681,2.0681,2.0681,2.0658,2.0657,2.0656,2.0655,2.0658,2.0659,2.066,2.0686,0,0,2.0663,2.0663,0,0,0,0,0,0,0,0,2.0659,2.066,2.0669,2.0668,2.0667,2.0668,2.0673,2.0683,2.0658,2.0661,2.0656,2.0655,2.0662,2.0663,2.0666,2.0686,2.0686,2.0663,2.0664,2.0664,2.0664,0,0,0,0,0,0,0,2.0658,2.066,2.068,2.0669,2.0668,2.0661,2.0662,2.0674,2.0667,2.0661,2.0659,2.066,2.0662,2.0665,2.0666,2.0686,2.0663,2.0664,2.0665,2.0665,2.0727,2.0728,0,0,0,0,0,0,2.066,2.066,2.0679,2.068,2.066,2.0663,2.0663,2.0669,2.0667,2.0666,2.0661,2.0659,2.0663,2.0664,2.0666,2.0695,2.0664,2.0665,2.0666,2.0726,2.0727,2.0728,0,0,0,0,0,0,2.0659,2.0662,2.0679,2.0669,2.0671,2.0664,2.0671,2.0669,2.0672,2.0667,2.0665,2.0665,2.0663,2.0664,2.0681,2.0695,2.0666,2.0666,2.0724,2.0726,2.0727,2.0754,0,0,0,0,0,0,2.0658,2.0661,2.0672,2.067,2.0672,2.0695,2.0672,2.067,2.0674,2.0672,2.0671,2.067,2.0662,2.0679,2.0682,2.0695,2.0667,2.0723,2.0725,2.0727,2.0752,2.0757,2.076,0,0,0,0,0,2.0657,2.0679,2.0672,2.0675,2.0684,2.0696,2.0697,2.0688,2.0676,2.0685,2.0682,2.067,2.0693,2.0681,2.0684,2.0698,2.0722,2.0725,2.0727,2.075,2.0756,2.076,0,0,0,0,0,0,2.0683,2.0679,2.0671,2.0693,2.0695,2.0692,2.0704,2.0694,2.0699,2.0697,2.0685,2.0685,2.0703,2.0703,2.069,2.0722,2.0705,2.0708,2.0722,2.0727,2.0731,2.0731,2.0668,0,0,0,0,0,2.0692,2.0702,2.0697,2.0717,2.0718,2.0711,2.0716,2.0709,2.071,2.0711,2.0708,2.071,2.0717,2.0722,2.0729,2.0752,2.0751,2.0763,2.0767,2.0771,2.0773,2.0784,2.0789,2.0735,2.0735,2.0735,0,0,2.0709,2.0708,2.0715,2.0722,2.0723,2.0733,2.0712,2.0724,2.0731,2.0712,2.0727,2.0726,2.0727,2.0746,2.0755,2.0746,2.0788,2.0774,2.0776,2.0777,2.0787,2.0792,2.0796,2.0737,2.0737,2.0737,0,0,2.0745,2.0746,2.0762,2.0762,2.0763,2.0758,2.0762,2.076,2.0758,2.0773,2.0759,2.0768,2.0781,2.0782,2.0784,2.082,2.0808,2.0822,2.0843,2.0854,2.0858,2.0862,2.0873,2.0878,2.0825,2.0825,2.0825,0,2.0766,2.0781,2.0771,2.0783,2.0786,2.077,2.0786,2.0787,2.079,2.0792,2.0783,2.0798,2.0798,2.0817,2.0825,2.0828,2.0831,2.0822,2.0858,2.0862,2.0865,2.0876,2.088,2.0826,2.0826,2.0826,2.0826,0,2.0806,2.0816,2.0829,2.0832,2.0837,2.0851,2.0842,2.0848,2.084,2.0836,2.0851,2.085,2.0856,2.086,2.0853,2.0877,2.0872,2.0861,2.0843,2.0872,2.0882,2.0886,2.0829,2.0828,2.0828,2.0827,0,0,2.0859,2.0856,2.086,2.0861,2.086,2.0868,2.0881,2.0886,2.0891,2.0893,2.0903,2.0914,2.0904,2.0906,2.0899,2.0908,2.0935,2.0896,2.0895,2.0902,2.0961,2.0968,2.0973,2.0928,2.0929,2.0929,2.096,0,2.0893,2.0914,2.0905,2.0928,2.0936,2.0921,2.0931,2.0932,2.0928,2.0935,2.0931,2.0938,2.0924,2.0925,2.0934,2.093,2.0946,2.0928,2.0936,2.0936,2.0935,2.0979,2.0987,2.1016,2.0964,2.0965,2.0965,0,2.0936,2.094,2.0962,2.0959,2.0962,2.0972,2.0976,2.0983,2.0983,2.0979,2.0982,2.0972,2.0983,2.0966,2.0982,2.0969,2.0972,2.097,2.0971,2.0971,2.0952,2.0978,2.1026,2.103,2.0971,2.0971,2.0971,0,2.097,2.0981,2.0996,2.0997,2.0994,2.1001,2.1,2.0999,2.1003,2.1006,2.1007,2.1012,2.1014,2.1018,2.1009,2.0998,2.1025,2.1008,2.1022,2.1022,2.1028,2.1027,2.1075,2.1032,2.1032,2.1031,2.1031,0,2.1009,2.1023,2.1011,2.102,2.1035,2.1024,2.104,2.1037,2.1036,2.1044,2.1031,2.1038,2.1027,2.1034,2.1027,2.104,2.1041,2.1038,2.1036,2.1039,2.1039,2.104,2.1037,2.1033,2.1032,2.1032,2.1032,0,2.1049,2.1042,2.1057,2.1053,2.1052,2.1063,2.1059,2.1067,2.1062,2.1072,2.1073,2.1066,2.1072,2.1064,2.1071,2.1066,2.1083,2.1079,2.1083,2.1081,2.1095,2.1094,2.1144,2.115,2.1104,2.1104,2.1105,0,2.1074,2.1084,2.1081,2.1085,2.1085,2.1092,2.1095,2.1085,2.1088,2.1089,2.1096,2.1102,2.1105,2.1116,2.1111,2.1115,2.111,2.1128,2.1111,2.1113,2.1109,2.1108,2.1108,2.1131,2.1131,2.1132,2.1132,0,2.1118,2.1113,2.1118,2.1122,2.1126,2.1128,2.113,2.1134,2.1123,2.1128,2.1134,2.1137,2.1143,2.1148,2.1151,2.1149,2.1139,2.1138,2.1141,2.1143,2.1145,2.1143,2.1091,2.1136,2.1136,2.1136,2.1135,2.1135,2.115,2.1158,2.1157,2.1162,2.1162,2.1163,2.117,2.1166,2.1171,2.1174,2.1168,2.1176,2.1175,2.1177,2.1177,2.1183,2.1175,2.118,2.1181,2.1182,2.1184,2.1145,2.1183,2.1183,2.1183,2.1183,2.1183,0,2.1192,2.119,2.1196,2.1197,2.1202,2.1191,2.1192,2.1196,2.1203,2.1203,2.1207,2.1213,2.1218,2.1213,2.1217,2.1222,2.1217,2.1224,2.1222,2.1222,2.1191,2.1187,2.1227,2.1227,2.1227,2.1227,2.1227,2.1227,2.1214,2.1227,2.1222,2.1234,2.1232,2.1239,2.124,2.1241,2.1241,2.1249,2.1253,2.1249,2.1247,2.125,2.1254,2.1252,2.1254,2.1261,2.1258,2.1229,2.1224,2.122,2.1217,2.1262,2.1262,2.1288,2.1288,2.1289]}]]